Flag for Vietnam Weather past 2 weeks in Hanoi, Vietnam

Now
82 °F

Broken clouds.


Feels Like: 89 °F
Forecast: 76 / 85 °F
Wind: 12 mph from Southeast

Location: Ha Noi Airport


UV Index: 7 (High)

Visibility: 5 mi


Pressure: 29.77 "Hg

Humidity: 79%

Dew point: 75 °F

Location of HanoiLocation

Historic Weather in Hanoi

°F

Hanoi temperature yesterday

Maximum temperature yesterday: 81 °F (at 11:30 AM)
Minimum temperature yesterday: 75 °F (at 2:30 AM)
Average temperature yesterday: 79 °F

Past Weeks' High & Low Weather Summary

 TemperatureHumidityPressure
High84 °F (Apr 10, 2:30 PM)94% (Apr 5, 7:00 AM)30.04 "Hg (Apr 5, 7:00 AM)
Low68 °F (Apr 6, 6:30 AM)65% (Apr 6, 3:30 PM)29.71 "Hg (Apr 11, 4:30 PM)
Average77 °F85%29.85 "Hg
* Reported Apr 4 12:00 Noon — Apr 19 12:00 Noon, Hanoi, Weather by CustomWeather, © 2014

Note: Actual official high and low records may vary slightly from our data, if they occured in-between our weather recording intervals... More about our weather records

Advertising

Historic Weather Conditions — Data for Previous 24 hours

 ConditionsComfort  
Time TempWeatherWind HumidityBarometerVisibility
12:00 PM
Apr 19
81 °FBroken clouds.10 mph84%29.77 "Hg5 mi
11:30 AM81 °FBroken clouds.9 mph84%29.77 "Hg4 mi
11:00 AM81 °FBroken clouds.9 mph84%29.80 "Hg4 mi
10:30 AM81 °FBroken clouds.9 mph84%29.80 "Hg4 mi
10:00 AM81 °FBroken clouds.6 mph84%29.80 "Hg4 mi
9:30 AM79 °FBroken clouds.8 mph89%29.80 "Hg4 mi
9:00 AM79 °FBroken clouds.9 mph89%29.80 "Hg4 mi
8:30 AM79 °FBroken clouds.8 mph89%29.80 "Hg4 mi
8:00 AM79 °FBroken clouds.8 mph89%29.80 "Hg3 mi
7:30 AM79 °FBroken clouds.8 mph89%29.80 "Hg3 mi
7:00 AM77 °FFog.7 mph94%29.77 "Hg3 mi
6:30 AM77 °FFog.7 mph94%29.77 "Hg2 mi
6:00 AM77 °FFog.9 mph94%29.77 "Hg2 mi
5:30 AM77 °FPartly cloudy.7 mph94%29.77 "Hg3 mi
5:00 AM77 °FPartly cloudy.10 mph89%29.74 "Hg3 mi
4:30 AM77 °FPartly cloudy.9 mph94%29.74 "Hg3 mi
4:00 AM77 °FPartly cloudy.9 mph94%29.74 "Hg3 mi
3:30 AM77 °FFog.8 mph94%29.74 "Hg3 mi
3:00 AM79 °FFog.8 mph89%29.74 "Hg3 mi
2:30 AM79 °FPartly cloudy.8 mph89%29.74 "Hg4 mi
2:00 AM79 °FPartly cloudy.9 mph89%29.74 "Hg3 mi
1:30 AM79 °FPartly cloudy.9 mph89%29.77 "Hg3 mi
1:00 AM79 °FFog.8 mph89%29.77 "Hg3 mi
12:30 AM77 °FFog.7 mph94%29.80 "Hg2 mi
12:00 AM79 °FFog.9 mph89%29.80 "Hg2 mi
11:30 PM
Apr 18
79 °FFog.7 mph89%29.80 "Hg2 mi
11:00 PM79 °FLight rain. Partly cloudy.10 mph89%29.80 "Hg3 mi
10:30 PM79 °FPartly cloudy.12 mph89%29.80 "Hg3 mi
10:00 PM79 °FPartly cloudy.12 mph89%29.80 "Hg3 mi
9:30 PM79 °FPartly cloudy.15 mph89%29.80 "Hg4 mi
9:00 PM79 °FPartly cloudy.14 mph89%29.77 "Hg4 mi
8:30 PM79 °FPartly cloudy.13 mph89%29.77 "Hg4 mi
8:00 PM79 °FPartly cloudy.10 mph89%29.77 "Hg4 mi
7:30 PM79 °FPartly cloudy.10 mph89%29.77 "Hg4 mi
7:00 PM79 °FPartly cloudy.12 mph89%29.74 "Hg4 mi
6:30 PM79 °FPartly cloudy.10 mph89%29.74 "Hg4 mi
6:00 PM79 °FBroken clouds.10 mph89%29.74 "Hg4 mi
5:30 PM79 °FBroken clouds.10 mph89%29.74 "Hg4 mi
5:00 PM81 °FBroken clouds.12 mph84%29.74 "Hg4 mi
4:30 PM81 °FBroken clouds.12 mph84%29.74 "Hg4 mi
4:00 PM81 °FBroken clouds.13 mph84%29.74 "Hg4 mi
3:30 PM81 °FBroken clouds.13 mph84%29.74 "Hg6 mi
3:00 PM81 °FBroken clouds.12 mph84%29.74 "Hg4 mi
2:30 PM81 °FBroken clouds.12 mph84%29.77 "Hg5 mi
2:00 PM81 °FBroken clouds.12 mph89%29.77 "Hg6 mi
1:30 PM81 °FBroken clouds.10 mph84%29.77 "Hg5 mi
1:00 PM81 °FBroken clouds.9 mph84%29.80 "Hg5 mi
Weather by CustomWeather, © 2014

See weather overview